Date String (YYYY-MM-DD hh:mm:ss) UTC,Instrument flags,Ambient pressure (hPa),Sample flow (lpm),Bypass flow (lpm),Sample temperature (°C),Ambient temperature (°C),ASC tube jacket temperature (°C),LED temperature (°C),Box temperature (°C),Sample RH (%),Span deviation,Mass concentration (μg/m³),Mass concentration (μg/m³),Mass concentration (μg/m³)
DateTimeUTC,F1_M11,P_M11,Q1_M11,Q2_M11,T1_M11,T2_M11,T3_M11,T4_M11,T5_M11,U1_M11,ZSPAN_M11,X0_M11,X2_M11,X1_M11
2022-05-23 17:00:00,,0825.1,4.99,0.00,28.8,27.9,00.0,37.7,30.6,19.4,0000.0,0010.48,0005.22,0004.42
2022-05-23 17:01:00,,0825.0,4.99,0.00,28.8,27.9,00.0,37.7,30.6,18.9,0000.0,0010.16,0005.17,0004.42
2022-05-23 17:02:00,,0825.0,5.00,0.00,28.8,27.9,00.0,37.7,30.7,19.5,0000.0,0010.18,0005.11,0004.41
2022-05-23 17:03:00,,0825.0,5.01,0.00,28.8,27.9,00.0,37.7,30.7,19.9,0000.0,0010.06,0005.08,0004.42
2022-05-23 17:04:00,,0825.0,5.00,0.00,28.8,27.9,00.0,37.7,30.7,20.6,0000.0,0009.97,0005.06,0004.44
2022-05-23 17:05:00,,0825.0,4.99,0.00,28.8,27.9,00.0,37.7,30.7,20.5,0000.0,0009.44,0005.06,0004.45
2022-05-23 17:06:00,,0825.0,5.01,0.00,28.8,27.9,00.0,37.7,30.7,19.8,0000.0,0009.17,0005.04,0004.46
2022-05-23 17:07:00,,0825.0,5.00,0.00,28.8,27.9,00.0,37.7,30.7,19.8,0000.0,0008.71,0005.00,0004.45
2022-05-23 17:08:00,,0825.0,4.99,0.00,28.8,27.9,00.0,37.7,30.7,19.9,0000.0,0008.75,0005.02,0004.44
2022-05-23 17:09:00,,0825.0,5.00,0.00,28.8,27.9,00.0,37.8,30.7,19.5,0000.0,0008.66,0005.02,0004.43
2022-05-23 17:10:00,,0825.1,5.00,0.00,28.8,27.9,00.0,37.8,30.7,19.4,0000.0,0008.74,0005.03,0004.44
2022-05-23 17:11:00,,0825.1,5.00,0.00,28.8,27.9,00.0,37.8,30.7,19.1,0000.0,0009.13,0005.09,0004.45
2022-05-23 17:12:00,,0825.0,5.02,0.00,28.9,27.9,00.0,37.8,30.7,19.5,0000.0,0009.20,0005.10,0004.45
2022-05-23 17:13:00,,0825.1,5.00,0.00,28.9,27.9,00.0,37.8,30.7,19.1,0000.0,0009.07,0005.11,0004.46
2022-05-23 17:14:00,,0825.0,4.99,0.00,28.9,27.9,00.0,37.8,30.7,19.5,0000.0,0009.42,0005.15,0004.47
2022-05-23 17:15:00,,0825.1,5.00,0.00,28.9,28.0,00.0,37.8,30.7,19.8,0000.0,0009.55,0005.19,0004.47
2022-05-23 17:16:00,,0825.1,5.00,0.00,28.9,28.0,00.0,37.8,30.8,20.1,0000.0,0009.44,0005.17,0004.48
2022-05-23 17:17:00,,0825.0,5.01,0.00,28.9,28.0,00.0,37.8,30.8,19.2,0000.0,0009.14,0005.13,0004.49
2022-05-23 17:18:00,,0825.0,5.00,0.00,28.9,28.0,00.0,37.8,30.8,19.3,0000.0,0009.17,0005.19,0004.51
2022-05-23 17:19:00,,0825.0,5.00,0.00,28.9,28.0,00.0,37.8,30.8,19.6,0000.0,0009.34,0005.24,0004.52
2022-05-23 17:20:00,,0825.1,5.00,0.00,28.9,28.0,00.0,37.8,30.8,19.5,0000.0,0009.47,0005.25,0004.53
2022-05-23 17:21:00,,0825.0,4.99,0.00,28.9,28.0,00.0,37.8,30.8,19.7,0000.0,0010.44,0005.29,0004.53
2022-05-23 17:22:00,,0825.0,5.00,0.00,29.0,28.0,00.0,37.8,30.8,20.3,0000.0,0010.43,0005.30,0004.53
2022-05-23 17:23:00,,0825.0,5.01,0.00,29.0,28.0,00.0,37.8,30.8,20.0,0000.0,0010.57,0005.33,0004.56
2022-05-23 17:24:00,,0825.1,5.00,0.00,29.0,28.0,00.0,37.8,30.8,19.7,0000.0,0010.53,0005.33,0004.57
2022-05-23 17:25:00,,0825.0,4.99,0.00,29.0,28.0,00.0,37.8,30.8,19.6,0000.0,0010.28,0005.34,0004.56
2022-05-23 17:26:00,,0825.0,5.01,0.00,29.0,28.1,00.0,37.9,30.8,20.0,0000.0,0010.15,0005.32,0004.55
2022-05-23 17:27:00,,0825.0,5.00,0.00,29.0,28.1,00.0,37.9,30.8,20.0,0000.0,0010.34,0005.35,0004.53
2022-05-23 17:28:00,,0825.0,4.99,0.00,29.0,28.1,00.0,37.9,30.8,18.8,0000.0,0010.70,0005.33,0004.49
2022-05-23 17:29:00,,0825.0,5.00,0.00,29.0,28.1,00.0,37.9,30.8,18.6,0000.0,0010.68,0005.28,0004.44
2022-05-23 17:30:00,,0825.0,5.01,0.00,29.0,28.1,00.0,37.9,30.8,19.0,0000.0,0010.47,0005.21,0004.42
2022-05-23 17:31:00,,0825.0,4.99,0.00,29.0,28.0,00.0,37.9,30.8,18.9,0000.0,0011.03,0005.18,0004.40
2022-05-23 17:32:00,,0825.0,4.99,0.00,29.0,28.0,00.0,37.9,30.8,19.2,0000.0,0009.94,0005.08,0004.37
2022-05-23 17:33:00,,0825.0,4.99,0.00,29.0,28.0,00.0,37.9,30.8,19.3,0000.0,0009.47,0004.99,0004.33
2022-05-23 17:34:00,,0825.0,5.00,0.00,29.0,28.0,00.0,37.9,30.8,20.2,0000.0,0009.15,0004.92,0004.28
2022-05-23 17:35:00,,0825.0,5.00,0.00,29.0,28.0,00.0,37.9,30.8,19.5,0000.0,0009.14,0004.88,0004.24
2022-05-23 17:36:00,,0824.9,4.99,0.00,29.0,28.0,00.0,37.9,30.8,19.0,0000.0,0009.14,0004.83,0004.21
2022-05-23 17:37:00,,0824.9,5.00,0.00,29.0,28.0,00.0,37.9,30.8,19.1,0000.0,0009.10,0004.78,0004.16
2022-05-23 17:38:00,,0825.0,5.00,0.00,29.0,28.0,00.0,37.9,30.8,19.2,0000.0,0008.91,0004.73,0004.14
2022-05-23 17:39:00,,0825.0,5.00,0.00,29.0,28.0,00.0,37.9,30.8,19.4,0000.0,0008.65,0004.74,0004.15
2022-05-23 17:40:00,,0825.0,5.00,0.00,29.0,28.0,00.0,37.9,30.8,19.2,0000.0,0009.18,0004.75,0004.15
2022-05-23 17:41:00,,0825.1,4.99,0.00,29.0,28.0,00.0,37.9,30.8,19.6,0000.0,0009.26,0004.75,0004.14
2022-05-23 17:42:00,,0825.0,5.00,0.00,29.0,28.0,00.0,37.9,30.8,18.8,0000.0,0008.59,0004.72,0004.13
2022-05-23 17:43:00,,0825.1,5.00,0.00,29.0,28.0,00.0,37.9,30.8,18.8,0000.0,0008.68,0004.70,0004.10
2022-05-23 17:44:00,,0825.0,5.00,0.00,29.0,28.0,00.0,37.9,30.8,18.8,0000.0,0008.73,0004.69,0004.08
2022-05-23 17:45:00,,0825.0,5.01,0.00,28.9,27.9,00.0,37.9,30.7,18.6,0000.0,0008.67,0004.67,0004.07
2022-05-23 17:46:00,,0825.0,5.00,0.00,28.9,27.9,00.0,37.9,30.8,19.0,0000.0,0008.60,0004.65,0004.06
2022-05-23 17:47:00,,0824.9,5.00,0.00,28.9,27.9,00.0,37.9,30.8,19.2,0000.0,0009.46,0004.61,0004.03
2022-05-23 17:48:00,,0825.0,4.99,0.00,29.0,27.9,00.0,37.9,30.8,19.1,0000.0,0009.52,0004.55,0004.01
2022-05-23 17:49:00,,0825.0,5.00,0.00,29.0,27.9,00.0,37.9,30.8,18.8,0000.0,0009.40,0004.49,0003.97
2022-05-23 17:50:00,,0825.0,4.99,0.00,29.0,28.0,00.0,37.9,30.8,18.4,0000.0,0009.19,0004.40,0003.92
2022-05-23 17:51:00,,0825.0,5.01,0.00,29.0,28.0,00.0,37.9,30.8,18.4,0000.0,0008.78,0004.35,0003.88
2022-05-23 17:52:00,,0824.9,5.00,0.00,29.0,28.0,00.0,37.9,30.8,19.0,0000.0,0008.37,0004.28,0003.83
2022-05-23 17:53:00,,0825.0,5.00,0.00,29.0,28.0,00.0,37.9,30.8,18.7,0000.0,0008.25,0004.20,0003.77
2022-05-23 17:54:00,,0825.0,5.00,0.00,29.0,28.0,00.0,37.9,30.8,18.4,0000.0,0008.24,0004.15,0003.74
2022-05-23 17:55:00,,0824.9,5.00,0.00,29.0,28.0,00.0,37.9,30.8,18.6,0000.0,0008.71,0004.08,0003.70
2022-05-23 17:56:00,,0824.9,4.99,0.00,29.0,28.0,00.0,37.9,30.8,18.7,0000.0,0008.64,0004.04,0003.67
2022-05-23 17:57:00,,0824.9,4.99,0.00,29.0,28.0,00.0,37.9,30.8,18.6,0000.0,0008.97,0003.98,0003.63
2022-05-23 17:58:00,,0824.9,5.00,0.00,29.0,28.0,00.0,37.9,30.8,18.6,0000.0,0008.16,0003.95,0003.61
2022-05-23 17:59:00,,0824.9,5.00,0.00,29.0,28.0,00.0,37.9,30.8,19.4,0000.0,0007.71,0003.91,0003.58
